This is the latest recevied weather packets stored in our database for station/object KE0PRS. If no packets are shown the sender has not sent any weather packets the latest 10 day(s).
| Time | Temp. | Humidity | Pressure | Rain* | Wind** | Luminosity | Snow |
|---|---|---|---|---|---|---|---|
| 1788118258 | 38.33° C | 29% | 1011.7 hPa | 0 mm | - | 735 W/m² | - |
| 1788117953 | 38.33° C | 29% | 1011.6 hPa | 0 mm | - | 739 W/m² | - |
| 1788117653 | 38.33° C | 30% | 1011.7 hPa | 0 mm | - | 744 W/m² | - |
| 1788117348 | 37.78° C | 30% | 1011.7 hPa | 0 mm | - | 754 W/m² | - |
| 1788117043 | 37.78° C | 31% | 1011.6 hPa | 0 mm | - | 764 W/m² | - |
| 1788116739 | 37.78° C | 31% | 1011.8 hPa | 0 mm | - | 767 W/m² | - |
| 1788116434 | 37.78° C | 30% | 1011.7 hPa | 0 mm | - | 697 W/m² | - |
| 1788116127 | 37.22° C | 31% | 1011.9 hPa | 0 mm | - | 772 W/m² | - |
| 1788115824 | 37.22° C | 31% | 1011.9 hPa | 0 mm | - | 640 W/m² | - |
| 1788115522 | 37.78° C | 30% | 1012 hPa | 0 mm | - | 685 W/m² | - |
| 1788115217 | 37.78° C | 31% | 1012 hPa | 0 mm | - | 608 W/m² | - |
| 1788114912 | 37.78° C | 31% | 1011.8 hPa | 0 mm | - | 771 W/m² | - |
| 1788114608 | 37.78° C | 29% | 1012.2 hPa | 0 mm | - | 766 W/m² | - |
| 1788114303 | 37.78° C | 33% | 1012 hPa | 0 mm | - | 758 W/m² | - |
| 1788113999 | 37.22° C | 30% | 1012.2 hPa | 0 mm | - | 756 W/m² | - |
| 1788113695 | 37.22° C | 31% | 1012.3 hPa | 0 mm | - | 719 W/m² | - |
| 1788113394 | 37.22° C | 30% | 1012.4 hPa | 0 mm | - | 751 W/m² | - |
| 1788113093 | 37.22° C | 30% | 1012.6 hPa | 0 mm | - | 650 W/m² | - |
| 1788112793 | 36.67° C | 31% | 1012.6 hPa | 0 mm | - | 719 W/m² | - |
| 1788112493 | 36.67° C | 32% | 1012.4 hPa | 0 mm | - | 737 W/m² | - |
| 1788112188 | 36.67° C | 31% | 1012.5 hPa | 0 mm | - | 727 W/m² | - |
| 1788111884 | 36.67° C | 30% | 1012.5 hPa | 0 mm | - | 726 W/m² | - |
| 1788111578 | 36.67° C | 32% | 1012.6 hPa | 0 mm | - | 720 W/m² | - |
| 1788111274 | 36.11° C | 34% | 1012.6 hPa | 0 mm | - | 714 W/m² | - |
| 1788110970 | 35.56° C | 35% | 1012.7 hPa | 0 mm | - | 707 W/m² | - |
* Rain latest hour (hover to see other rain measurements)
** Current wind speed in m/s (hover to see current wind gust speed)